CW3742 Weather Reports


time (UTC)temp
F
wind
direction
speed
knots
gust
knots
rain 1hr
in
rain 24hr
in
rain mn
in
humidity
%
barometer
mb
20260903183016 94 225 3.5 7.8 0.00 0.00 0.00 61 994.2
20260903180016 92 225 2.6 7.8 0.00 0.00 0.00 62 994.4
20260903173016 92 225 2.6 7.0 0.00 0.00 0.00 64 994.5
20260903170018 90 225 4.3 9.6 0.00 0.00 0.00 64 994.8
20260903163016 89 225 3.5 8.7 0.00 0.00 0.00 67 995.0
20260903160016 87 225 5.2 10.4 0.00 0.00 0.00 68 995.1
20260903153016 86 225 6.1 11.3 0.00 0.00 0.00 70 995.0
20260903150016 85 225 7.0 12.2 0.00 0.00 0.00 71 994.9
20260903143016 84 225 6.1 10.4 0.00 0.00 0.00 71 994.6
20260903140016 83 225 6.1 12.2 0.00 0.00 0.00 72 994.6
20260903133017 82 203 6.1 10.4 0.00 0.00 0.00 75 994.6
20260903130056 79 203 4.3 8.7 0.00 0.00 0.00 80 994.6
20260903123016 78 180 3.5 6.1 0.00 0.00 0.00 81 994.6
20260903120016 76 158 4.3 7.0 0.00 0.00 0.00 84 994.2
20260903113016 76 158 4.3 6.1 0.00 0.00 0.00 85 994.0
20260903110036 76 158 4.3 7.0 0.00 0.00 0.00 85 993.9
20260903103016 76 158 4.3 7.8 0.00 0.00 0.00 84 993.8
20260903100018 77 158 4.3 6.1 0.00 0.00 0.00 84 993.8
20260903093038 77 180 3.5 6.1 0.00 0.00 0.00 82 993.7
20260903090016 78 180 3.5 6.1 0.00 0.00 0.00 82 993.9
20260903083018 78 180 3.5 6.1 0.00 0.00 0.00 82 993.8
20260903080016 79 180 3.5 6.1 0.00 0.00 0.00 81 993.7
20260903073016 79 180 3.5 6.1 0.00 0.00 0.00 81 993.8
20260903070017 79 180 2.6 6.1 0.00 0.00 0.00 81 994.0
20260903063016 79 180 2.6 5.2 0.00 0.00 0.00 81 994.1
20260903060017 80 180 2.6 5.2 0.00 0.00 0.00 81 994.1
20260903053016 80 180 3.5 5.2 0.00 0.00 0.00 81 994.2
20260903050016 81 180 2.6 6.1 0.00 0.00 0.00 81 994.1
20260903043036 81 180 2.6 5.2 0.00 0.00 0.00 81 994.0
20260903040036 82 180 2.6 6.1 0.00 0.00 0.00 80 994.0
20260903033017 82 180 3.5 6.1 0.00 0.00 0.00 79 994.1
20260903030036 83 180 3.5 7.0 0.00 0.00 0.00 78 994.0
20260903023016 84 180 2.6 5.2 0.00 0.00 0.00 76 993.9
20260903020017 85 158 3.5 7.0 0.00 0.00 0.00 76 993.6
20260903013016 85 158 3.5 6.1 0.00 0.00 0.00 75 993.3
20260903010016 87 158 3.5 6.1 0.00 0.00 0.00 73 993.2
20260903003018 88 158 3.5 7.0 0.00 0.00 0.00 71 993.3
20260903000018 90 180 3.5 6.1 0.00 0.00 0.00 70 993.4
20260902233016 92 180 2.6 6.1 0.00 0.00 0.00 66 993.6
20260902230016 94 203 4.3 10.4 0.00 0.00 0.00 59 993.6
20260902223016 95 203 5.2 9.6 0.00 0.00 0.00 59 993.6
20260902220016 96 203 5.2 10.4 0.00 0.00 0.00 58 993.8
20260902213016 96 203 6.1 10.4 0.00 0.00 0.00 56 993.9
20260902210016 95 203 7.0 13.0 0.00 0.00 0.00 57 994.1
20260902203016 95 203 7.0 13.0 0.00 0.00 0.00 57 994.3
20260902200016 95 225 7.8 13.9 0.00 0.00 0.00 57 994.5
20260902193036 94 203 7.8 14.8 0.00 0.00 0.00 59 994.7
20260902190016 94 225 7.0 13.0 0.00 0.00 0.00 58 994.8